Погода в Море

США     45°52′31″N   93°17′48″W
темп.,
°C
ветер,
м/с
пор.,
м/с
влажн.,
%
обл.,
%
осадки,
мм/ч
давл.,
гПа
погр.,
м
19 апреля, пн
пн1901:000ссз71079100 0.1 1014949
04:00−2ссз6118196 0.0 1016837
07:00−2ссз7117397 0.1 10161017
10:00−1ссз7961100 0.1 10171476
13:00+2ссз7945100 0.1 10171928
16:00+3ссз6938100 0.0 10172192
19:00+3сз5737100 0.0 10171754
22:000ссз494954 0.0 1020351
20 апреля, вт
вт2001:00−1сз4105178 0.0 1020419
04:00−2ссз49624 0.0 1020398
07:00−2сз376223 0.0 1021432
10:00+2сз4539100 0.0 10221924
13:00+4сз5632100 0.0 10202470
16:00+4сз563388 0.0 10192305
19:00+3сз4642100 0.0 10201069
22:00−1сз365915 0.0 1021132
21 апреля, ср
ср2101:00−2ссз386353 0.0 1022251
04:00−3ссз36715 0.0 1022164
07:00−3сз37665 0.0 1023302
10:00+2сз5538100 0.0 10232022
13:00+4сз5533100 0.0 10222429
16:00+5сз463080 0.0 10202315
19:00+4зсз244045 0.0 1019172
22:000зсз22495 0.0 102013
22 апреля, чт
чт2201:00−1з33580 0.0 102038
04:00−1з37640 0.0 1020119
07:00−1зюз310625 0.0 1020255
10:00+8зюз58442 0.0 1018763
13:00+12зюз67385 0.0 10161794
16:00+13зюз67395 0.0 10141900
19:00+10юз35540 0.0 1013115
22:00+5юз34650 0.0 101449
23 апреля, пт
пт2301:00+3ююз396925 0.0 1014150
04:00+3юз31074100 0.0 1013195
07:00+4ююз31081100 0.0 1013260
10:00+9ююз4676100 0.0 1012909
13:00+7ю3689100 0.1 1012549
16:00+9ю4476100 0.1 1011760
19:00+8ююз2383100 0.2 1011285
22:00+6ююв2590100 0.0 1012123